TimeHST,TemperatureF,Dew PointF,Humidity,Sea Level PressureIn,VisibilityMPH,Wind Direction,Wind SpeedMPH,Gust SpeedMPH,PrecipitationIn,Events,Conditions,WindDirDegrees,DateUTC
12:57 AM,73.4,66.0,78,30.00,10.0,East,4.6,-,N/A,,Mostly Cloudy,80,2013-06-28 10:57:00
1:57 AM,-9999,-9999,N/A,29.99,10.0,ENE,5.8,-,N/A,,Mostly Cloudy,70,2013-06-28 11:57:00
2:34 AM,-9999,-9999,N/A,29.99,6.2,ENE,6.9,-,N/A,,Overcast,70,2013-06-28 12:34:00
2:52 AM,-9999,-9999,N/A,29.99,10.0,East,5.8,-,N/A,,Overcast,80,2013-06-28 12:52:00
2:57 AM,-9999,-9999,N/A,29.98,10.0,ENE,8.1,-,N/A,,Overcast,70,2013-06-28 12:57:00
3:57 AM,73.4,68.0,83,29.98,10.0,Variable,3.5,-,N/A,,Overcast,0,2013-06-28 13:57:00
4:17 AM,73.4,68.0,83,29.99,6.2,East,4.6,-,N/A,,Overcast,80,2013-06-28 14:17:00
4:57 AM,73.4,68.0,83,29.98,10.0,ENE,5.8,-,N/A,,Scattered Clouds,70,2013-06-28 14:57:00
5:12 AM,73.4,68.0,83,29.99,6.2,East,8.1,-,N/A,,Mostly Cloudy,80,2013-06-28 15:12:00
5:57 AM,73.4,68.0,83,29.99,10.0,ENE,6.9,-,0.00,,Mostly Cloudy,70,2013-06-28 15:57:00
6:04 AM,75.2,68.0,78,30.01,6.2,ENE,5.8,-,N/A,,Mostly Cloudy,70,2013-06-28 16:04:00
6:14 AM,75.2,68.0,78,30.01,6.2,ESE,3.5,-,0.03,Rain,Rain,110,2013-06-28 16:14:00
6:26 AM,75.2,68.0,78,30.01,6.2,East,6.9,-,0.03,,Overcast,80,2013-06-28 16:26:00
6:57 AM,75.2,68.0,78,30.01,10.0,Calm,Calm,-,0.03,,Overcast,0,2013-06-28 16:57:00
7:57 AM,75.2,68.0,78,30.01,10.0,ENE,8.1,-,0.00,,Mostly Cloudy,60,2013-06-28 17:57:00
8:57 AM,75.2,69.1,81,30.02,10.0,ENE,8.1,-,N/A,,Overcast,60,2013-06-28 18:57:00
9:57 AM,77.0,69.1,76,30.03,10.0,East,11.5,19.6,0.00,,Overcast,100,2013-06-28 19:57:00
10:34 AM,77.0,69.8,78,30.04,6.2,Variable,5.8,-,0.01,,Overcast,0,2013-06-28 20:34:00
10:57 AM,79.9,69.1,69,30.02,10.0,ENE,10.4,-,0.01,,Mostly Cloudy,70,2013-06-28 20:57:00
11:57 AM,84.2,69.1,60,30.01,10.0,ENE,10.4,-,N/A,,Mostly Cloudy,60,2013-06-28 21:57:00
12:24 PM,84.2,66.2,55,30.02,6.2,East,9.2,17.3,N/A,,Overcast,80,2013-06-28 22:24:00
12:57 PM,82.0,66.9,60,29.99,10.0,ENE,11.5,17.3,N/A,,Mostly Cloudy,60,2013-06-28 22:57:00
1:57 PM,82.6,66.9,59,29.98,10.0,NE,9.2,-,N/A,,Overcast,40,2013-06-28 23:57:00
2:57 PM,82.6,69.1,64,29.98,10.0,ENE,10.4,17.3,N/A,,Scattered Clouds,60,2013-06-29 00:57:00
3:57 PM,81.3,66.9,61,29.97,10.0,ENE,6.9,-,0.00,Rain,Light Rain,70,2013-06-29 01:57:00
4:57 PM,81.0,70.0,69,29.97,10.0,ENE,9.2,-,0.00,,Mostly Cloudy,70,2013-06-29 02:57:00
5:57 PM,79.0,66.0,64,29.97,10.0,ENE,8.1,-,N/A,,Mostly Cloudy,60,2013-06-29 03:57:00
6:57 PM,77.5,68.0,72,29.98,10.0,ENE,6.9,-,N/A,,Mostly Cloudy,60,2013-06-29 04:57:00
7:57 PM,77.5,66.9,70,29.99,10.0,ENE,6.9,-,N/A,,Mostly Cloudy,60,2013-06-29 05:57:00
8:57 PM,75.6,69.1,80,30.00,10.0,ENE,8.1,-,N/A,,Mostly Cloudy,60,2013-06-29 06:57:00
9:57 PM,75.6,68.0,77,30.01,10.0,ENE,4.6,-,N/A,,Mostly Cloudy,70,2013-06-29 07:57:00
10:57 PM,75.6,68.0,77,30.02,10.0,East,4.6,-,N/A,,Mostly Cloudy,80,2013-06-29 08:57:00
11:57 PM,74.8,66.9,76,30.01,10.0,East,4.6,-,N/A,,Mostly Cloudy,80,2013-06-29 09:57:00